Time,TemperatureF,DewpointF,PressureIn,WindDirection,WindDirectionDegrees,WindSpeedMPH,WindSpeedGustMPH,Humidity,HourlyPrecipIn,Conditions,Clouds,dailyrainin,SoftwareType,DateUTC
2013-03-24 00:00:00,30.4,19.7,30.10,West,270,0.0,1.0,64,0.00,,SKC,0.00,VWS V14.01,2013-03-24 05:00:00,
2013-03-24 00:08:00,30.1,20.0,30.10,West,261,0.0,-999.0,65,-99.99,,,0.00,weatherlink.com 1.10,2013-03-24 05:08:00,
2013-03-24 00:23:00,29.6,20.0,30.10,West,261,0.0,-999.0,68,-99.99,,,0.00,weatherlink.com 1.10,2013-03-24 05:23:00,
2013-03-24 00:30:00,29.3,20.1,30.10,West,270,0.0,1.0,68,0.00,,SKC,0.00,VWS V14.01,2013-03-24 05:30:00,
2013-03-24 00:38:00,29.1,20.0,30.09,West,261,0.0,-999.0,70,-99.99,,,0.00,weatherlink.com 1.10,2013-03-24 05:38:00,
2013-03-24 00:53:00,28.6,20.0,30.09,West,261,0.0,-999.0,71,-99.99,,,0.00,weatherlink.com 1.10,2013-03-24 05:53:00,
2013-03-24 01:00:00,28.5,20.6,30.09,West,270,0.0,0.0,72,0.00,,SKC,0.00,VWS V14.01,2013-03-24 06:00:00,
2013-03-24 01:08:00,28.4,20.0,30.08,West,261,0.0,-999.0,72,-99.99,,,0.00,weatherlink.com 1.10,2013-03-24 06:08:00,
2013-03-24 01:23:00,28.4,20.0,30.08,West,261,0.0,-999.0,71,-99.99,,,0.00,weatherlink.com 1.10,2013-03-24 06:23:00,
2013-03-24 01:30:00,28.4,19.9,30.08,West,270,0.0,1.0,70,0.00,,SKC,0.00,VWS V14.01,2013-03-24 06:30:00,
2013-03-24 01:38:00,28.3,20.0,30.08,West,261,0.0,-999.0,70,-99.99,,,0.00,weatherlink.com 1.10,2013-03-24 06:38:00,
2013-03-24 01:53:00,28.6,19.0,30.08,West,261,0.0,-999.0,68,-99.99,,,0.00,weatherlink.com 1.10,2013-03-24 06:53:00,
2013-03-24 02:00:00,28.7,19.1,30.08,West,270,0.0,1.0,67,0.00,,SKC,0.00,VWS V14.01,2013-03-24 07:00:00,
2013-03-24 02:08:00,29.2,19.0,30.08,West,261,0.0,-999.0,66,-99.99,,,0.00,weatherlink.com 1.10,2013-03-24 07:08:00,
2013-03-24 02:23:00,29.6,19.0,30.08,NW,309,0.0,-999.0,65,-99.99,,,0.00,weatherlink.com 1.10,2013-03-24 07:23:00,
2013-03-24 02:30:00,29.7,19.8,30.08,NW,315,0.0,4.0,66,0.00,,SKC,0.00,VWS V14.01,2013-03-24 07:30:00,
2013-03-24 02:38:00,29.5,20.0,30.07,NW,309,0.0,-999.0,67,-99.99,,,0.00,weatherlink.com 1.10,2013-03-24 07:38:00,
2013-03-24 02:53:00,29.4,21.0,30.07,East,79,2.0,-999.0,70,-99.99,,,0.00,weatherlink.com 1.10,2013-03-24 07:53:00,
2013-03-24 03:00:00,29.4,20.8,30.08,ENE,68,0.0,3.0,70,0.00,,SKC,0.00,VWS V14.01,2013-03-24 08:00:00,
2013-03-24 03:08:00,29.5,22.0,30.07,NNW,347,0.0,-999.0,72,-99.99,,,0.00,weatherlink.com 1.10,2013-03-24 08:08:00,
2013-03-24 03:23:00,29.4,22.0,30.07,NE,46,0.0,-999.0,73,-99.99,,,0.00,weatherlink.com 1.10,2013-03-24 08:23:00,
2013-03-24 03:30:00,29.4,21.8,30.08,NNE,22,0.0,2.0,73,0.00,,SKC,0.00,VWS V14.01,2013-03-24 08:30:00,
2013-03-24 03:39:00,29.4,22.0,30.08,NE,46,0.0,-999.0,73,-99.99,,,0.00,weatherlink.com 1.10,2013-03-24 08:39:00,
2013-03-24 03:54:00,29.3,22.0,30.08,ESE,103,0.0,-999.0,73,-99.99,,,0.00,weatherlink.com 1.10,2013-03-24 08:54:00,
2013-03-24 04:00:00,29.3,21.7,30.07,NE,45,0.0,6.0,73,0.00,,SKC,0.00,VWS V14.01,2013-03-24 09:00:00,
2013-03-24 04:09:00,29.2,22.0,30.07,East,89,0.0,-999.0,73,-99.99,,,0.00,weatherlink.com 1.10,2013-03-24 09:09:00,
2013-03-24 04:24:00,29.2,22.0,30.07,ENE,60,0.0,-999.0,73,-99.99,,,0.00,weatherlink.com 1.10,2013-03-24 09:24:00,
2013-03-24 04:30:00,29.2,21.6,30.07,East,90,0.0,7.0,73,0.00,,SKC,0.00,VWS V14.01,2013-03-24 09:30:00,
2013-03-24 04:39:00,29.2,21.0,30.07,NE,44,0.0,-999.0,72,-99.99,,,0.00,weatherlink.com 1.10,2013-03-24 09:39:00,
2013-03-24 04:54:00,29.1,21.0,30.07,NE,56,1.0,-999.0,73,-99.99,,,0.00,weatherlink.com 1.10,2013-03-24 09:54:00,
2013-03-24 05:00:00,29.1,21.2,30.07,NE,45,1.0,6.0,72,0.00,,SKC,0.00,VWS V14.01,2013-03-24 10:00:00,
2013-03-24 05:09:00,29.0,21.0,30.07,East,86,0.0,-999.0,72,-99.99,,,0.00,weatherlink.com 1.10,2013-03-24 10:09:00,
2013-03-24 05:24:00,28.9,21.0,30.07,ENE,65,0.0,-999.0,72,-99.99,,,0.00,weatherlink.com 1.10,2013-03-24 10:24:00,
2013-03-24 05:30:00,28.9,21.4,30.07,ENE,68,0.0,5.0,73,0.00,,SKC,0.00,VWS V14.01,2013-03-24 10:30:00,
2013-03-24 05:39:00,28.8,21.0,30.07,NE,51,1.0,-999.0,73,-99.99,,,0.00,weatherlink.com 1.10,2013-03-24 10:39:00,
2013-03-24 05:54:00,28.7,21.0,30.07,NNW,337,0.0,-999.0,73,-99.99,,,0.00,weatherlink.com 1.10,2013-03-24 10:54:00,
2013-03-24 06:00:00,28.7,21.1,30.07,NNW,338,0.0,4.0,73,0.00,,SKC,0.00,VWS V14.01,2013-03-24 11:00:00,
2013-03-24 06:09:00,28.6,21.0,30.07,NNW,338,0.0,-999.0,73,-99.99,,,0.00,weatherlink.com 1.10,2013-03-24 11:09:00,
2013-03-24 06:24:00,28.4,21.0,30.07,WNW,300,0.0,-999.0,73,-99.99,,,0.00,weatherlink.com 1.10,2013-03-24 11:24:00,
2013-03-24 06:30:00,28.3,20.8,30.07,WNW,292,0.0,5.0,73,0.00,,SKC,0.00,VWS V14.01,2013-03-24 11:30:00,
2013-03-24 06:39:00,28.1,20.0,30.07,WNW,302,0.0,-999.0,73,-99.99,,,0.00,weatherlink.com 1.10,2013-03-24 11:39:00,
2013-03-24 07:00:00,27.9,20.7,30.07,WNW,292,0.0,5.0,74,0.00,,SKC,0.00,VWS V14.01,2013-03-24 12:00:00,
2013-03-24 07:09:00,27.8,20.0,30.07,NNE,24,0.0,-999.0,73,-99.99,,,0.00,weatherlink.com 1.10,2013-03-24 12:09:00,
2013-03-24 07:24:00,27.6,20.0,30.07,ENE,62,0.0,-999.0,73,-99.99,,,0.00,weatherlink.com 1.10,2013-03-24 12:24:00,
2013-03-24 07:30:00,27.5,20.0,30.07,ENE,68,0.0,6.0,73,0.00,,SKC,0.00,VWS V14.01,2013-03-24 12:30:00,
2013-03-24 07:39:00,27.4,20.0,30.07,SE,131,0.0,-999.0,73,-99.99,,,0.00,weatherlink.com 1.10,2013-03-24 12:39:00,
2013-03-24 07:54:00,27.3,20.0,30.07,North,11,0.0,-999.0,74,-99.99,,,0.00,weatherlink.com 1.10,2013-03-24 12:54:00,
2013-03-24 08:00:00,27.3,20.1,30.07,ENE,68,0.0,4.0,74,0.00,,SKC,0.00,VWS V14.01,2013-03-24 13:00:00,
2013-03-24 08:09:00,27.3,20.0,30.08,ENE,63,2.0,-999.0,74,-99.99,,,0.00,weatherlink.com 1.10,2013-03-24 13:09:00,
2013-03-24 08:24:00,27.4,20.0,30.08,ENE,58,2.0,-999.0,74,-99.99,,,0.00,weatherlink.com 1.10,2013-03-24 13:24:00,
2013-03-24 08:30:00,27.5,20.3,30.08,North,0,0.0,6.0,74,0.00,,SKC,0.00,VWS V14.01,2013-03-24 13:30:00,
2013-03-24 08:39:00,27.8,20.0,30.07,NNE,32,0.0,-999.0,73,-99.99,,,0.00,weatherlink.com 1.10,2013-03-24 13:39:00,
2013-03-24 08:54:00,28.0,20.0,30.07,North,355,1.0,-999.0,73,-99.99,,,0.00,weatherlink.com 1.10,2013-03-24 13:54:00,
2013-03-24 09:00:00,28.1,20.2,30.07,ENE,68,1.0,6.0,72,0.00,,SKC,0.00,VWS V14.01,2013-03-24 14:00:00,
2013-03-24 09:24:00,28.4,20.0,30.06,North,10,6.0,-999.0,71,-99.99,,,0.00,weatherlink.com 1.10,2013-03-24 14:24:00,
2013-03-24 09:30:00,28.5,20.3,30.07,North,0,2.0,11.0,71,0.00,,SKC,0.00,VWS V14.01,2013-03-24 14:30:00,
2013-03-24 09:39:00,28.5,20.0,30.07,NW,321,9.0,-999.0,71,-99.99,,,0.00,weatherlink.com 1.10,2013-03-24 14:39:00,
2013-03-24 09:54:00,28.8,21.0,30.06,NNW,333,1.0,-999.0,72,-99.99,,,0.00,weatherlink.com 1.10,2013-03-24 14:54:00,
2013-03-24 10:00:00,29.0,21.1,30.06,East,90,2.0,9.0,72,0.00,,SKC,0.00,VWS V14.01,2013-03-24 15:00:00,
2013-03-24 10:09:00,29.3,21.0,30.06,East,80,8.0,-999.0,71,-99.99,,,0.00,weatherlink.com 1.10,2013-03-24 15:09:00,
2013-03-24 10:24:00,29.9,21.0,30.06,NNW,346,0.0,-999.0,70,-99.99,,,0.00,weatherlink.com 1.10,2013-03-24 15:24:00,
2013-03-24 10:30:00,30.0,21.4,30.06,ENE,68,2.0,15.0,70,0.00,,SKC,0.00,VWS V14.01,2013-03-24 15:30:00,
2013-03-24 10:39:00,29.9,21.0,30.06,ENE,59,3.0,-999.0,70,-99.99,,,0.00,weatherlink.com 1.10,2013-03-24 15:39:00,
2013-03-24 10:54:00,29.9,21.0,30.06,SSE,147,8.0,-999.0,70,-99.99,,,0.00,weatherlink.com 1.10,2013-03-24 15:54:00,
2013-03-24 11:00:00,29.9,21.3,30.06,East,90,3.0,14.0,70,0.00,,SKC,0.00,VWS V14.01,2013-03-24 16:00:00,
2013-03-24 11:09:00,30.1,21.0,30.06,NNE,20,6.0,-999.0,70,-99.99,,,0.00,weatherlink.com 1.10,2013-03-24 16:09:00,
2013-03-24 11:24:00,30.8,22.0,30.05,NNW,338,0.0,-999.0,69,-99.99,,,0.00,weatherlink.com 1.10,2013-03-24 16:24:00,
2013-03-24 11:30:00,31.0,22.0,30.05,NNE,22,4.0,16.0,69,0.00,,SKC,0.00,VWS V14.01,2013-03-24 16:30:00,
2013-03-24 11:39:00,31.4,22.0,30.04,East,93,5.0,-999.0,68,-99.99,,,0.00,weatherlink.com 1.10,2013-03-24 16:39:00,
2013-03-24 11:54:00,32.0,22.0,30.04,North,10,0.0,-999.0,67,-99.99,,,0.00,weatherlink.com 1.10,2013-03-24 16:54:00,
2013-03-24 12:00:00,32.4,22.0,30.04,NNE,22,4.0,14.0,65,0.00,,SKC,0.00,VWS V14.01,2013-03-24 17:00:00,
2013-03-24 12:09:00,32.3,22.0,30.04,NNW,342,1.0,-999.0,66,-99.99,,,0.00,weatherlink.com 1.10,2013-03-24 17:09:00,
2013-03-24 12:24:00,32.3,22.0,30.03,NW,307,4.0,-999.0,66,-99.99,,,0.00,weatherlink.com 1.10,2013-03-24 17:24:00,
2013-03-24 12:30:00,32.4,22.3,30.03,North,0,4.0,18.0,66,0.00,,SKC,0.00,VWS V14.01,2013-03-24 17:30:00,
2013-03-24 12:39:00,32.7,22.0,30.02,ENE,76,0.0,-999.0,66,-99.99,,,0.00,weatherlink.com 1.10,2013-03-24 17:39:00,
2013-03-24 12:54:00,32.5,22.0,30.02,NNE,21,3.0,-999.0,66,-99.99,,,0.00,weatherlink.com 1.10,2013-03-24 17:54:00,
2013-03-24 13:00:00,32.6,22.1,30.03,ENE,68,4.0,17.0,65,0.00,,SKC,0.00,VWS V14.01,2013-03-24 18:00:00,
2013-03-24 13:09:00,32.4,22.0,30.03,NNE,13,1.0,-999.0,66,-99.99,,,0.00,weatherlink.com 1.10,2013-03-24 18:09:00,
2013-03-24 13:24:00,32.4,22.0,30.03,East,84,6.0,-999.0,66,-99.99,,,0.00,weatherlink.com 1.10,2013-03-24 18:24:00,
2013-03-24 13:30:00,32.4,22.7,30.03,NE,45,4.0,14.0,67,0.00,,SKC,0.00,VWS V14.01,2013-03-24 18:30:00,
2013-03-24 13:39:00,32.0,22.0,30.03,ENE,74,0.0,-999.0,67,-99.99,,,0.00,weatherlink.com 1.10,2013-03-24 18:39:00,
2013-03-24 13:54:00,32.3,22.0,30.03,North,360,1.0,-999.0,67,-99.99,,,0.00,weatherlink.com 1.10,2013-03-24 18:54:00,
2013-03-24 14:00:00,32.3,22.6,30.03,North,0,3.0,14.0,67,0.00,,SKC,0.00,VWS V14.01,2013-03-24 19:00:00,
2013-03-24 14:09:00,32.0,22.0,30.02,ENE,71,1.0,-999.0,68,-99.99,,,0.00,weatherlink.com 1.10,2013-03-24 19:09:00,
2013-03-24 14:24:00,32.0,22.0,30.02,ESE,102,0.0,-999.0,68,-99.99,,,0.00,weatherlink.com 1.10,2013-03-24 19:24:00,
2013-03-24 14:30:00,32.1,22.8,30.02,East,90,3.0,11.0,68,0.00,,SKC,0.00,VWS V14.01,2013-03-24 19:30:00,
2013-03-24 14:39:00,32.4,23.0,30.02,NNE,21,2.0,-999.0,67,-99.99,,,0.00,weatherlink.com 1.10,2013-03-24 19:39:00,
2013-03-24 14:54:00,32.3,22.0,30.02,North,360,3.0,-999.0,67,-99.99,,,0.00,weatherlink.com 1.10,2013-03-24 19:54:00,
2013-03-24 15:00:00,32.4,22.7,30.02,NNE,22,2.0,12.0,67,0.00,,SKC,0.00,VWS V14.01,2013-03-24 20:00:00,
2013-03-24 15:09:00,33.1,22.0,30.01,ENE,61,0.0,-999.0,65,-99.99,,,0.00,weatherlink.com 1.10,2013-03-24 20:09:00,
2013-03-24 15:24:00,33.2,22.0,30.01,ENE,74,0.0,-999.0,64,-99.99,,,0.00,weatherlink.com 1.10,2013-03-24 20:24:00,
2013-03-24 15:30:00,33.2,22.4,30.01,East,90,2.0,12.0,64,0.00,,SKC,0.00,VWS V14.01,2013-03-24 20:30:00,
2013-03-24 15:39:00,33.0,22.0,30.01,NNW,339,1.0,-999.0,65,-99.99,,,0.00,weatherlink.com 1.10,2013-03-24 20:39:00,
2013-03-24 15:55:00,33.1,22.0,30.00,NNE,13,1.0,-999.0,65,-99.99,,,0.00,weatherlink.com 1.10,2013-03-24 20:55:00,
2013-03-24 16:00:00,33.0,22.5,30.00,NNW,338,1.0,10.0,65,0.00,,SKC,0.00,VWS V14.01,2013-03-24 21:00:00,
2013-03-24 16:10:00,32.8,23.0,30.00,NW,320,4.0,-999.0,66,-99.99,,,0.00,weatherlink.com 1.10,2013-03-24 21:10:00,
2013-03-24 16:25:00,33.2,23.0,30.00,NNW,340,1.0,-999.0,65,-99.99,,,0.00,weatherlink.com 1.10,2013-03-24 21:25:00,
2013-03-24 16:30:00,33.2,22.7,30.00,NNW,338,3.0,12.0,65,0.00,,SKC,0.00,VWS V14.01,2013-03-24 21:30:00,
2013-03-24 16:40:00,33.0,23.0,29.99,WNW,302,5.0,-999.0,67,-99.99,,,0.00,weatherlink.com 1.10,2013-03-24 21:40:00,
2013-03-24 16:55:00,33.0,23.0,29.99,North,351,4.0,-999.0,67,-99.99,,,0.00,weatherlink.com 1.10,2013-03-24 21:55:00,
2013-03-24 17:00:00,32.9,23.2,29.99,NW,315,2.0,12.0,67,0.00,,SKC,0.00,VWS V14.01,2013-03-24 22:00:00,
2013-03-24 17:10:00,32.8,23.0,30.00,NNW,327,7.0,-999.0,67,-99.99,,,0.00,weatherlink.com 1.10,2013-03-24 22:10:00,
2013-03-24 17:25:00,32.5,23.0,30.00,North,5,2.0,-999.0,67,-99.99,,,0.00,weatherlink.com 1.10,2013-03-24 22:25:00,
2013-03-24 17:30:00,32.5,22.8,30.00,NNW,338,3.0,13.0,67,0.00,,SKC,0.00,VWS V14.01,2013-03-24 22:30:00,
2013-03-24 17:40:00,32.5,23.0,30.00,North,351,0.0,-999.0,68,-99.99,,,0.00,weatherlink.com 1.10,2013-03-24 22:40:00,
2013-03-24 17:55:00,32.2,23.0,30.00,North,11,1.0,-999.0,69,-99.99,,,0.00,weatherlink.com 1.10,2013-03-24 22:55:00,
2013-03-24 18:00:00,32.2,22.8,30.01,NNW,338,2.0,14.0,68,0.00,,SKC,0.00,VWS V14.01,2013-03-24 23:00:00,
2013-03-24 18:10:00,32.2,23.0,30.00,NNW,335,4.0,-999.0,68,-99.99,,,0.00,weatherlink.com 1.10,2013-03-24 23:10:00,
2013-03-24 18:25:00,32.4,23.0,30.00,NW,321,2.0,-999.0,68,-99.99,,,0.00,weatherlink.com 1.10,2013-03-24 23:25:00,
2013-03-24 18:30:00,32.4,22.7,30.00,NW,315,2.0,8.0,67,0.00,,SKC,0.00,VWS V14.01,2013-03-24 23:30:00,
2013-03-24 18:40:00,32.4,23.0,30.01,NNW,331,2.0,-999.0,68,-99.99,,,0.00,weatherlink.com 1.10,2013-03-24 23:40:00,
2013-03-24 18:55:00,32.2,23.0,30.01,NNW,329,0.0,-999.0,68,-99.99,,,0.00,weatherlink.com 1.10,2013-03-24 23:55:00,
2013-03-24 19:00:00,32.1,22.8,30.01,NW,315,2.0,11.0,68,0.00,,SKC,0.00,VWS V14.01,2013-03-25 00:00:00,
2013-03-24 19:10:00,32.0,22.0,30.01,NW,319,0.0,-999.0,67,-99.99,,,0.00,weatherlink.com 1.10,2013-03-25 00:10:00,
2013-03-24 19:25:00,31.7,21.0,30.02,North,360,1.0,-999.0,66,-99.99,,,0.00,weatherlink.com 1.10,2013-03-25 00:25:00,
2013-03-24 19:30:00,31.7,21.7,30.02,NW,315,1.0,9.0,66,0.00,,SKC,0.00,VWS V14.01,2013-03-25 00:30:00,
2013-03-24 19:40:00,31.4,22.0,30.02,NNW,336,1.0,-999.0,67,-99.99,,,0.00,weatherlink.com 1.10,2013-03-25 00:40:00,
2013-03-24 19:55:00,30.9,21.0,30.02,NNW,337,2.0,-999.0,67,-99.99,,,0.00,weatherlink.com 1.10,2013-03-25 00:55:00,
2013-03-24 20:00:00,30.8,21.1,30.03,NNW,338,1.0,8.0,67,0.00,,SKC,0.00,VWS V14.01,2013-03-25 01:00:00,
2013-03-24 20:10:00,30.4,21.0,30.03,NW,311,0.0,-999.0,68,-99.99,,,0.00,weatherlink.com 1.10,2013-03-25 01:10:00,
2013-03-24 20:25:00,30.0,21.0,30.04,NW,311,0.0,-999.0,69,-99.99,,,0.00,weatherlink.com 1.10,2013-03-25 01:25:00,
2013-03-24 20:30:00,29.9,21.0,30.04,NW,315,0.0,6.0,69,0.00,,SKC,0.00,VWS V14.01,2013-03-25 01:30:00,
2013-03-24 20:40:00,29.7,21.0,30.04,NW,306,0.0,-999.0,70,-99.99,,,0.00,weatherlink.com 1.10,2013-03-25 01:40:00,
2013-03-24 20:55:00,29.5,21.0,30.05,NW,308,0.0,-999.0,71,-99.99,,,0.00,weatherlink.com 1.10,2013-03-25 01:55:00,
2013-03-24 21:00:00,29.5,21.3,30.05,NW,315,0.0,7.0,71,0.00,,SKC,0.00,VWS V14.01,2013-03-25 02:00:00,
2013-03-24 21:10:00,29.5,21.0,30.05,NW,313,0.0,-999.0,71,-99.99,,,0.00,weatherlink.com 1.10,2013-03-25 02:10:00,
2013-03-24 21:25:00,29.4,21.0,30.05,West,270,0.0,-999.0,72,-99.99,,,0.00,weatherlink.com 1.10,2013-03-25 02:25:00,
2013-03-24 21:30:00,29.4,21.5,30.05,NW,315,0.0,5.0,72,0.00,,SKC,0.00,VWS V14.01,2013-03-25 02:30:00,
2013-03-24 21:40:00,29.4,21.0,30.05,West,279,0.0,-999.0,72,-99.99,,,0.00,weatherlink.com 1.10,2013-03-25 02:40:00,
2013-03-24 21:55:00,29.5,22.0,30.05,NNW,331,0.0,-999.0,73,-99.99,,,0.00,weatherlink.com 1.10,2013-03-25 02:55:00,
2013-03-24 22:00:00,29.5,21.9,30.06,West,270,0.0,5.0,73,0.00,,SKC,0.00,VWS V14.01,2013-03-25 03:00:00,
2013-03-24 22:10:00,29.5,22.0,30.06,NW,321,0.0,-999.0,73,-99.99,,,0.00,weatherlink.com 1.10,2013-03-25 03:10:00,
2013-03-24 22:25:00,29.6,22.0,30.06,NNW,336,2.0,-999.0,73,-99.99,,,0.00,weatherlink.com 1.10,2013-03-25 03:25:00,
2013-03-24 22:30:00,29.6,22.0,30.06,NNW,338,1.0,11.0,73,0.00,,SKC,0.00,VWS V14.01,2013-03-25 03:30:00,
2013-03-24 22:40:00,29.7,22.0,30.06,NW,308,0.0,-999.0,73,-99.99,,,0.00,weatherlink.com 1.10,2013-03-25 03:40:00,
2013-03-24 22:55:00,29.6,22.0,30.06,NNW,344,0.0,-999.0,74,-99.99,,,0.00,weatherlink.com 1.10,2013-03-25 03:55:00,
2013-03-24 23:00:00,29.6,22.0,30.06,NNW,338,1.0,7.0,73,0.00,,SKC,0.00,VWS V14.01,2013-03-25 04:00:00,
2013-03-24 23:10:00,29.5,22.0,30.06,NNW,335,0.0,-999.0,73,-99.99,,,0.00,weatherlink.com 1.10,2013-03-25 04:10:00,
2013-03-24 23:25:00,29.5,21.0,30.06,NNE,17,0.0,-999.0,71,-99.99,,,0.00,weatherlink.com 1.10,2013-03-25 04:25:00,
2013-03-24 23:30:00,29.5,21.3,30.07,NW,315,2.0,13.0,71,0.00,,SKC,0.00,VWS V14.01,2013-03-25 04:30:00,
2013-03-24 23:40:00,29.3,21.0,30.06,North,350,0.0,-999.0,70,-99.99,,,0.00,weatherlink.com 1.10,2013-03-25 04:40:00,
2013-03-24 23:55:00,28.7,20.0,30.07,NNW,329,0.0,-999.0,71,-99.99,,,0.00,weatherlink.com 1.10,2013-03-25 04:55:00,